Weather History for Plainview, TX

Change the Weather History Date:

Tuesday, February 5, 2013

  Actual Average Record
Temperature  
Mean Temperature 45 °F -  
Max Temperature 62 °F 50 °F 79 °F (1918)
Min Temperature 28 °F 25 °F -1 °F (1989)
Degree Days  
Heating Degree Days 20    
Moisture  
Dew Point 20 °F    
Average Humidity 41    
Maximum Humidity 64    
Minimum Humidity 19    
Precipitation  
Precipitation 0.00 in - - ()
Sea Level Pressure  
Sea Level Pressure 29.95 in    
Wind  
Wind Speed 4 mph (SW)    
Max Wind Speed 13 mph    
Max Gust Speed -    
Visibility 10 miles    
Events      
Averages and records for this station are not official NWS values.
T = Trace of Precipitation, MM = Missing Value Source: NWS Daily Summary

Daily Weather History Graph

Daily Weather History Graph

Search for Another Location

Airport:

Trip Planner

Search our weather history database for the weather conditions in past years. The results will help you decide how hot, cold, wet, or windy it might be!

Date:

Astronomy

Feb. 05, 2013 Rise Set
Actual Time 7:40 AM CST 6:21 PM CST
Civil Twilight 7:14 AM CST 6:47 PM CST
Nautical Twilight 6:44 AM CST 7:17 PM CST
Astronomical Twilight 6:15 AM CST 7:46 PM CST
Moon 3:20 AM CST (2/5) 1:45 PM CST (2/5)
Length of Visible Light 11h 32m
Length of Day
10h 40m
Waning Crescent, 26% of the Moon is Illuminated
Feb 5
Waning Crescent
Feb 10
New
Feb 17
First Quarter
Feb 25
Full
Mar 4
Last Quarter

Hourly Weather History & Observations

Time (CST) Temp. Windchill Dew Point Humidity Pressure Visibility Wind Dir Wind Speed Gust Speed Precip Events Conditions
12:15 AM 35.6 °F - 19.4 °F 52% 29.95 in 10.0 mi Calm Calm - N/A   Clear
12:35 AM 33.8 °F - 17.6 °F 52% 29.95 in 10.0 mi Calm Calm - N/A   Clear
12:55 AM 33.8 °F - 17.6 °F 52% 29.94 in 10.0 mi Calm Calm - N/A   Clear
1:15 AM 33.8 °F - 17.6 °F 52% 29.94 in 10.0 mi Calm Calm - N/A   Clear
1:35 AM 33.8 °F 30.8 °F 19.4 °F 56% 29.94 in 10.0 mi SSW 3.5 mph - N/A   Clear
1:55 AM 33.8 °F 30.8 °F 19.4 °F 56% 29.94 in 10.0 mi SSW 3.5 mph - N/A   Clear
2:15 AM 33.8 °F 30.8 °F 19.4 °F 56% 29.93 in 10.0 mi SSW 3.5 mph - N/A   Clear
2:35 AM 33.8 °F 30.8 °F 19.4 °F 56% 29.93 in 10.0 mi SSW 3.5 mph - N/A   Clear
2:55 AM 33.8 °F 28.6 °F 19.4 °F 56% 29.92 in 10.0 mi SSW 5.8 mph - N/A   Clear
3:15 AM 33.8 °F 28.6 °F 21.2 °F 60% 29.93 in 10.0 mi SSW 5.8 mph - N/A   Clear
3:35 AM 33.8 °F 27.0 °F 19.4 °F 56% 29.92 in 10.0 mi SSW 8.1 mph - N/A   Clear
3:55 AM 35.6 °F 29.2 °F 19.4 °F 52% 29.92 in 10.0 mi SW 8.1 mph - N/A   Clear
4:15 AM 33.8 °F 27.7 °F 19.4 °F 56% 29.92 in 10.0 mi WSW 6.9 mph - N/A   Clear
4:35 AM 32.0 °F 25.6 °F 17.6 °F 55% 29.92 in 10.0 mi WSW 6.9 mph - N/A   Clear
4:55 AM 32.0 °F 26.4 °F 17.6 °F 55% 29.92 in 10.0 mi WSW 5.8 mph - N/A   Clear
5:15 AM 32.0 °F 26.4 °F 19.4 °F 60% 29.93 in 10.0 mi West 5.8 mph - N/A   Clear
5:35 AM 32.0 °F 27.5 °F 17.6 °F 55% 29.93 in 10.0 mi WSW 4.6 mph - N/A   Clear
5:55 AM 30.2 °F 24.3 °F 17.6 °F 60% 29.93 in 10.0 mi West 5.8 mph - N/A   Clear
6:15 AM 30.2 °F 24.3 °F 17.6 °F 60% 29.92 in 10.0 mi SW 5.8 mph - N/A   Clear
6:35 AM 30.2 °F 25.4 °F 17.6 °F 60% 29.93 in 10.0 mi WSW 4.6 mph - N/A   Clear
6:55 AM 30.2 °F - 19.4 °F 64% 29.94 in 10.0 mi Calm Calm - N/A   Clear
7:15 AM 28.4 °F 21.2 °F 17.6 °F 64% 29.95 in 10.0 mi West 6.9 mph - N/A   Clear
7:35 AM 30.2 °F 23.4 °F 19.4 °F 64% 29.95 in 10.0 mi WSW 6.9 mph - N/A   Clear
8:15 AM 30.2 °F 23.4 °F 19.4 °F 64% 29.95 in 10.0 mi WSW 6.9 mph - N/A   Clear
8:35 AM 33.8 °F 27.7 °F 19.4 °F 56% 29.96 in 10.0 mi WSW 6.9 mph - N/A   Clear
8:55 AM 39.2 °F 32.5 °F 23.0 °F 52% 29.97 in 10.0 mi WSW 10.4 mph - N/A   Clear
9:15 AM 42.8 °F 36.6 °F 23.0 °F 46% 29.97 in 10.0 mi WSW 11.5 mph - N/A   Clear
9:35 AM 50.0 °F - 23.0 °F 35% 29.98 in 10.0 mi WSW 11.5 mph - N/A   Clear
9:55 AM 50.0 °F - 19.4 °F 30% 29.99 in 10.0 mi West 12.7 mph - N/A   Clear
10:15 AM 50.0 °F - 19.4 °F 30% 29.99 in 10.0 mi WSW 9.2 mph - N/A   Clear
10:35 AM 50.0 °F - 19.4 °F 30% 29.99 in 10.0 mi West 6.9 mph - N/A   Clear
10:55 AM 50.0 °F - 19.4 °F 30% 29.99 in 10.0 mi West 8.1 mph - N/A   Clear
11:15 AM 51.8 °F - 19.4 °F 28% 29.98 in 10.0 mi WSW 6.9 mph - N/A   Clear
11:35 AM 53.6 °F - 21.2 °F 28% 29.98 in 10.0 mi WSW 4.6 mph - N/A   Clear
11:55 AM 53.6 °F - 19.4 °F 26% 29.97 in 10.0 mi SW 3.5 mph - N/A   Clear
12:15 PM 55.4 °F - 21.2 °F 26% 29.97 in 10.0 mi West 5.8 mph - N/A   Clear
12:35 PM 55.4 °F - 21.2 °F 26% 29.97 in 10.0 mi West 4.6 mph - N/A   Clear
12:55 PM 57.2 °F - 21.2 °F 25% 29.96 in 10.0 mi Calm Calm - N/A   Clear
1:15 PM 59.0 °F - 21.2 °F 23% 29.95 in 10.0 mi SW 4.6 mph - N/A   Clear
1:35 PM 59.0 °F - 21.2 °F 23% 29.95 in 10.0 mi WSW 4.6 mph - N/A   Clear
1:55 PM 60.8 °F - 21.2 °F 22% 29.94 in 10.0 mi NW 5.8 mph - N/A   Clear
2:15 PM 60.8 °F - 21.2 °F 22% 29.94 in 10.0 mi NNW 4.6 mph - N/A   Clear
2:35 PM 60.8 °F - 21.2 °F 22% 29.94 in 10.0 mi WSW 5.8 mph - N/A   Clear
2:55 PM 62.6 °F - 23.0 °F 22% 29.93 in 10.0 mi Calm Calm - N/A   Clear
3:15 PM 62.6 °F - 23.0 °F 22% 29.92 in 10.0 mi SW 3.5 mph - N/A   Clear
3:35 PM 62.6 °F - 21.2 °F 20% 29.92 in 10.0 mi Calm Calm - N/A   Clear
3:55 PM 62.6 °F - 21.2 °F 20% 29.92 in 10.0 mi Calm Calm - N/A   Clear
4:15 PM 62.6 °F - 21.2 °F 20% 29.92 in 10.0 mi East 4.6 mph - N/A   Clear
4:35 PM 62.6 °F - 21.2 °F 20% 29.93 in 10.0 mi Calm Calm - N/A   Clear
4:55 PM 62.6 °F - 19.4 °F 19% 29.92 in 10.0 mi Calm Calm - N/A   Clear
5:15 PM 62.6 °F - 19.4 °F 19% 29.93 in 10.0 mi Calm Calm - N/A   Clear
5:35 PM 62.6 °F - 19.4 °F 19% 29.92 in 10.0 mi Calm Calm - N/A   Clear
5:55 PM 60.8 °F - 21.2 °F 22% 29.93 in 10.0 mi Calm Calm - N/A   Clear
6:15 PM 57.2 °F - 21.2 °F 25% 29.93 in 10.0 mi NE 4.6 mph - N/A   Clear
6:35 PM 55.4 °F - 21.2 °F 26% 29.93 in 10.0 mi ENE 5.8 mph - N/A   Clear
6:55 PM 53.6 °F - 23.0 °F 30% 29.94 in 10.0 mi NE 6.9 mph - N/A   Clear
7:15 PM 50.0 °F - 21.2 °F 32% 29.95 in 10.0 mi ENE 4.6 mph - N/A   Clear
7:35 PM 46.4 °F 42.9 °F 21.2 °F 37% 29.95 in 10.0 mi NE 6.9 mph - N/A   Clear
7:55 PM 46.4 °F 43.5 °F 21.2 °F 37% 29.96 in 10.0 mi NNE 5.8 mph - N/A   Clear
8:15 PM 46.4 °F 44.3 °F 21.2 °F 37% 29.96 in 10.0 mi NE 4.6 mph - N/A   Clear
8:35 PM 48.2 °F - 21.2 °F 34% 29.96 in 10.0 mi NE 5.8 mph - N/A   Clear
9:15 PM 44.6 °F 41.4 °F 23.0 °F 43% 29.97 in 10.0 mi ENE 5.8 mph - N/A   Clear
9:35 PM 42.8 °F 38.0 °F 23.0 °F 46% 29.97 in 10.0 mi East 8.1 mph - N/A   Clear
9:55 PM 41.0 °F 36.4 °F 23.0 °F 49% 29.98 in 10.0 mi East 6.9 mph - N/A   Clear
10:15 PM 41.0 °F 35.8 °F 23.0 °F 49% 29.98 in 10.0 mi East 8.1 mph - N/A   Clear
10:35 PM 41.0 °F 37.1 °F 23.0 °F 49% 29.98 in 10.0 mi ESE 5.8 mph - N/A   Clear
10:55 PM 41.0 °F 37.1 °F 23.0 °F 49% 29.98 in 10.0 mi ESE 5.8 mph - N/A   Clear
11:15 PM 42.8 °F 37.5 °F 23.0 °F 46% 29.97 in 10.0 mi East 9.2 mph - N/A   Clear
11:35 PM 42.8 °F 37.0 °F 23.0 °F 46% 29.97 in 10.0 mi ESE 10.4 mph - N/A   Clear
11:55 PM 42.8 °F 36.6 °F 23.0 °F 46% 29.97 in 10.0 mi ESE 11.5 mph - N/A   Clear